Location: Burgerwiesen
(48.6500°N, 15.6167°E)
Time: 10:48:06
(UTC+00:00)

Cosmos 841 Rocket - Pass Details

Date: 09 April 2020
Orbit: 747 x 772 km, 74.0° (Epoch: 24 May)

Event Time Altitude Azimuth Distance (km) Brightness Sun altitude
Rises 20:21:10 0° 336° (NNW) 3,259 7.9 -23.6°
Reaches altitude 10° 20:23:34 10° 337° (NNW) 2,327 6.9 -23.9°
Maximum altitude 20:28:52 88° 253° (WSW) 778 3.4 -24.5°
Enters shadow 20:29:30 70° 163° (SSE) 821 3.4 -24.6°
